This demonstration page uses our WeatherBlox Daily Observations layout. Learn more.

Left ArrowRight Arrow

Hourly Observations for March 10, 2023

Temp ( °F °C ) Dew Point ( °F °C ) Humidity (%) Winds ( mph kmh ) Pressure ( in mb ) Visibility ( mi km ) Precip ( " mm )
12:15 am 00:15 Cloudy with Drizzle 40 4.3 38 3.5 95 95 SE 8 13 29.98 1015 3 5 0.00 0.00
12:35 am 00:35 Cloudy with Drizzle 40 4.2 39 3.7 97 97 ESE 7 11 29.96 1015 3 5 0.01 0.25
12:55 am 00:55 Cloudy with Drizzle 39 4.1 39 3.7 97 97 ESE 7 11 29.95 1014 3 5 0.01 0.25
1:15 am 01:15 Cloudy with Drizzle 39 4.1 39 3.8 98 98 SE 5 7 29.95 1014 4 6 0.00 0.00
1:35 am 01:35 Cloudy with Drizzle 40 4.2 39 3.8 97 97 SE 5 7 29.94 1014 4 6 0.01 0.25
1:55 am 01:55 Cloudy with Drizzle 40 4.2 39 4 99 99 ESE 6 9 29.93 1014 3 5 0.01 0.25
2:15 am 02:15 Cloudy with Drizzle 40 4.2 39 3.9 98 98 Calm 29.93 1014 3 4 0.00 0.00
2:35 am 02:35 Cloudy with Drizzle 39 4.1 39 4 99 99 ESE 5 7 29.92 1013 3 4 0.00 0.00
2:55 am 02:55 Cloudy with Drizzle 39 4.1 39 4 99 99 SSE 3 6 29.90 1013 3 5 0.01 0.25
3:15 am 03:15 Cloudy with Drizzle 39 4.1 39 4 99 99 SSE 6 9 29.89 1012 3 5 0.00 0.00
3:35 am 03:35 Cloudy with Drizzle 39 4.1 39 4 99 99 S 3 6 29.89 1012 3 5 0.00 0.00
3:55 am 03:55 Cloudy with Drizzle 39 4.1 39 4 99 99 SSW 7 11 29.89 1012 2 3 0.01 0.25
4:15 am 04:15 Cloudy with Light Rain 40 4.2 39 4 99 99 WSW 13 20 29.89 1012 3 4 0.00 0.00
4:35 am 04:35 Cloudy with Mist and Fog 40 4.4 39 3.9 97 97 W 12 19 29.89 1012 5 8 0.00 0.00
4:55 am 04:55 Cloudy 40 4.5 38 3.5 93 93 W 16 26 29.89 1012 10 16 0.00 0.00
5:15 am 05:15 Cloudy 39 4.1 38 3.2 94 94 W 17 28 29.89 1012 10 16 0.00 0.00
5:35 am 05:35 Cloudy 39 3.7 37 3 95 95 W 15 24 29.90 1013 10 16 0.00 0.00
5:55 am 05:55 Cloudy 38 3.5 37 2.6 94 94 W 16 26 29.90 1013 10 16 0.00 0.00
6:15 am 06:15 Cloudy with Mist and Fog 38 3.1 36 2.3 94 94 W 21 33 29.91 1013 5 8 0.00 0.00
6:35 am 06:35 Cloudy 37 3 36 2 93 93 W 15 24 29.92 1013 10 16 0.00 0.00
6:55 am 06:55 Cloudy 37 2.7 35 1.8 94 94 W 14 22 29.92 1013 10 16 0.00 0.00
7:15 am 07:15 Cloudy 37 2.5 35 1.5 93 93 W 16 26 29.93 1014 10 16 0.00 0.00
7:35 am 07:35 Cloudy 36 2 34 1.1 94 94 W 17 28 29.93 1014 10 16 0.00 0.00
8:15 am 08:15 Cloudy with Mist and Fog 35 1.6 34 1 96 96 W 21 33 29.94 1014 5 8 0.00 0.00
8:35 am 08:35 Cloudy with Mist and Fog 35 1.5 33 0.8 95 95 W 24 39 29.94 1014 4 6 0.00 0.00
8:55 am 08:55 Cloudy 35 1.5 33 0.5 93 93 W 21 33 29.95 1014 10 16 0.00 0.00
9:15 am 09:15 Cloudy 35 1.5 32 0.2 91 91 W 16 26 29.95 1014 10 16 0.00 0.00
9:35 am 09:35 Cloudy 34 1.2 32 0.2 93 93 W 20 31 29.95 1014 10 16 0.00 0.00
9:55 am 09:55 Cloudy 34 1.1 32 0.1 93 93 W 14 22 29.96 1015 10 16 0.00 0.00
10:15 am 10:15 Cloudy 34 1 32 0 93 93 W 15 24 29.97 1015 7 11 0.00 0.00
10:35 am 10:35 Cloudy 34 1 32 0.1 94 94 W 15 24 29.97 1015 10 16 0.00 0.00
10:55 am 10:55 Cloudy 34 1 32 0.1 94 94 W 18 30 29.99 1015 10 16 0.00 0.00
11:15 am 11:15 Cloudy with Light Rain 34 1 32 0.2 94 94 WNW 14 22 29.99 1015 7 11 0.00 0.00
11:35 am 11:35 Cloudy with Light Rain 34 1 32 0.1 94 94 W 17 28 29.99 1015 3 4 0.00 0.00
11:55 am 11:55 Cloudy with Light Snow 34 1 33 0.3 95 95 W 15 24 29.99 1016 3 5 0.00 0.00
12:15 pm 12:15 Cloudy with Light Rain 34 1.1 33 0.5 96 96 WNW 15 24 29.99 1016 5 8 0.00 0.00
12:35 pm 12:35 Cloudy with Drizzle 34 1.3 33 0.4 94 94 WNW 15 24 30.00 1016 7 11 0.00 0.00
12:55 pm 12:55 Cloudy 35 1.5 33 0.4 92 92 WNW 15 24 30.00 1016 10 16 0.00 0.00
1:15 pm 13:15 Cloudy 35 1.7 33 0.4 91 91 WNW 15 24 30.00 1016 10 16 0.00 0.00
1:35 pm 13:35 Cloudy 35 1.7 33 0.4 91 91 W 13 20 30.00 1016 10 16 0.00 0.00
1:55 pm 13:55 Cloudy 35 1.9 33 0.4 90 90 WNW 12 19 30.01 1016 10 16 0.00 0.00
2:15 pm 14:15 Cloudy 36 2.2 33 0.6 89 89 WNW 12 19 30.01 1016 10 16 0.00 0.00
2:35 pm 14:35 Cloudy 36 2.2 32 0.2 87 87 WNW 12 19 30.01 1016 10 16 0.00 0.00
2:55 pm 14:55 Cloudy 36 2.3 33 0.4 87 87 WNW 12 19 30.02 1017 10 16 0.00 0.00
3:15 pm 15:15 Cloudy 37 2.5 33 0.4 86 86 WNW 12 19 30.03 1017 10 16 0.00 0.00
3:35 pm 15:35 Cloudy 37 2.6 32 0.1 84 84 NW 10 17 30.03 1017 10 16 0.00 0.00
3:55 pm 15:55 Cloudy 37 2.5 32 0 84 84 NW 15 24 30.04 1017 10 16 0.00 0.00
4:15 pm 16:15 Cloudy 36 2.4 32 -0.2 83 83 WNW 10 17 30.06 1018 10 16 0.00 0.00
4:35 pm 16:35 Cloudy 36 2 31 -0.3 85 85 NW 15 24 30.07 1018 10 16 0.00 0.00
4:55 pm 16:55 Cloudy 35 1.9 31 -0.4 85 85 NW 10 17 30.07 1018 10 16 0.00 0.00
5:15 pm 17:15 Cloudy 35 1.7 31 -0.5 85 85 NW 14 22 30.08 1019 10 16 0.00 0.00
5:35 pm 17:35 Cloudy 35 1.6 31 -0.4 87 87 NNW 12 19 30.08 1019 10 16 0.00 0.00
5:55 pm 17:55 Cloudy 35 1.5 31 -0.5 87 87 NNW 13 20 30.09 1019 10 16 0.00 0.00
6:15 pm 18:15 Cloudy 35 1.5 31 -0.5 87 87 NW 10 17 30.09 1019 10 16 0.00 0.00
6:35 pm 18:35 Cloudy 35 1.5 31 -0.5 87 87 NW 9 15 30.09 1019 10 16 0.00 0.00
6:55 pm 18:55 Cloudy 35 1.5 31 -0.5 87 87 WNW 7 11 30.10 1019 10 16 0.00 0.00
7:15 pm 19:15 Cloudy 35 1.6 31 -0.4 87 87 NW 9 15 30.10 1019 10 16 0.00 0.00
7:35 pm 19:35 Cloudy 35 1.5 32 -0.2 88 88 NW 9 15 30.10 1019 10 16 0.00 0.00
7:55 pm 19:55 Cloudy 35 1.6 32 -0.1 88 88 NW 7 11 30.11 1020 10 16 0.00 0.00
8:15 pm 20:15 Cloudy 35 1.6 32 0 89 89 NW 7 11 30.11 1020 10 16 0.00 0.00
8:35 pm 20:35 Cloudy 35 1.5 32 0 90 90 NW 6 9 30.11 1020 10 16 0.00 0.00
8:55 pm 20:55 Cloudy 35 1.5 32 0 90 90 NW 9 15 30.11 1020 10 16 0.00 0.00
9:15 pm 21:15 Cloudy 34 1.3 32 -0.1 90 90 NW 9 15 30.12 1020 10 16 0.00 0.00
9:35 pm 21:35 Cloudy 34 1.2 32 -0.1 91 91 NNW 6 9 30.12 1020 10 16 0.00 0.00
9:55 pm 21:55 Cloudy 34 1.1 32 0 92 92 NNW 8 13 30.12 1020 10 16 0.00 0.00
10:15 pm 22:15 Cloudy 34 1 32 0 93 93 NNW 8 13 30.12 1020 10 16 0.00 0.00
10:35 pm 22:35 Cloudy 34 1 32 -0.1 92 92 NNW 9 15 30.13 1020 10 16 0.00 0.00
10:55 pm 22:55 Cloudy 34 1 32 -0.2 92 92 NNW 7 11 30.14 1021 10 16 0.00 0.00
11:15 pm 23:15 Cloudy 34 0.9 32 -0.2 92 92 NNW 8 13 30.15 1021 10 16 0.00 0.00
11:35 pm 23:35 Cloudy 33 0.8 31 -0.3 92 92 NNW 7 11 30.12 1020 10 16 0.00 0.00
11:55 pm 23:55 Cloudy 33 0.7 32 -0.2 94 94 N 7 11 30.12 1020 10 16 0.00 0.00

Powered by AerisWeather